Simultaneous Nadir Overpasses (SNOs) Predictions

Prediction of SNOs between AQUA and METOP-C Satellite Orbit:

Table of predicted SNOs for the next 14.0 days since TLE Epoch: 1/14/2023
Index Date (AQUA) Time (AQUA) Lat,Lon (AQUA) SZA (AQUA ) Date (METOP-C) Time (METOP-C) Lat,Lon (METOP-C) SZA (METOP-C ) Distance(km) Time Diff (sec)
1 01/16/2023 18:32:38 -74.19, 77.11 84.91 01/16/2023 18:31:57 -74.17, 77.16 84.92 2.51 41
2 01/16/2023 19:22:05 74.22,-115.33 95.13 01/16/2023 19:22:36 74.25,-115.32 95.15 2.69 31
3 01/19/2023 13:16:08 74.19, -23.75 94.54 01/19/2023 13:15:36 74.18, -23.73 94.54 0.98 32
4 01/19/2023 14:05:34 -74.25, 143.76 85.41 01/19/2023 14:06:16 -74.24, 143.75 85.42 1.00 42
5 01/22/2023 07:59:34 -74.19,-124.58 86.07 01/22/2023 07:59:15 -74.18,-124.66 86.07 2.68 19
6 01/22/2023 08:49:02 74.28, 42.85 94.02 01/22/2023 08:49:53 74.28, 42.94 94.02 2.70 51
7 01/25/2023 01:53:30 -73.94, -32.49 86.98 01/25/2023 01:52:19 -73.90, -33.57 86.97 33.68 71
8 01/25/2023 02:43:01 74.19, 134.58 93.28 01/25/2023 02:42:53 74.19, 134.48 93.29 3.32 8
9 01/25/2023 03:32:28 -74.30, -58.03 86.61 01/25/2023 03:33:33 -74.27, -58.00 86.65 3.22 65
10 01/27/2023 20:37:00 74.17,-133.85 92.58 01/27/2023 20:35:52 74.14,-133.89 92.56 3.38 68
11 01/27/2023 21:26:26 -74.23, 33.66 87.37 01/27/2023 21:26:32 -74.23, 33.66 87.37 0.26 6



Historial Predications of SNOs between AQUA and METOP-C
